GW0139 Weather Reports


time (UTC)temp
F
wind
direction
speed
knots
gust
knots
rain 1hr
in
rain 24hr
in
rain mn
in
humidity
%
barometer
mb
20260506185551 80 158 3.5 4.3 0.00 0.00 0.00 93 1008.4
20260506185047 81 174 2.6 2.6 0.00 0.00 0.00 92 1008.5
20260506184545 80 200 0.9 1.7 0.00 0.00 0.00 93 1008.3
20260506184042 80 200 0.9 1.7 0.00 0.00 0.00 93 1008.5
20260506183538 80 176 2.6 4.3 0.00 0.00 0.00 93 1008.2
20260506183034 81 159 0.9 1.7 0.00 0.00 0.00 92 1008.5
20260506182532 81 189 1.7 2.6 0.00 0.00 0.00 92 1008.5
20260506182029 81 181 0.9 1.7 0.00 0.00 0.00 92 1008.4
20260506181527 81 177 1.7 1.7 0.00 0.00 0.00 92 1008.7
20260506181023 81 181 2.6 2.6 0.00 0.00 0.00 93 1008.7
20260506180520 81 178 0.9 1.7 0.00 0.00 0.00 93 1008.7
20260506180017 80 55 0.9 0.9 0.00 0.00 0.00 94 1008.7
20260506175513 80 144 1.7 1.7 0.00 0.00 0.00 94 1008.7
20260506175010 80 155 1.7 1.7 0.00 0.00 0.00 94 1008.7
20260506174508 80 173 0.9 0.9 0.00 0.00 0.00 95 1008.6
20260506174004 80 147 0.9 0.9 0.00 0.00 0.00 95 1008.7
20260506173502 80 187 0.9 1.7 0.00 0.00 0.00 94 1008.9
20260506172958 80 149 2.6 2.6 0.00 0.00 0.00 94 1008.9
20260506172455 80 151 0.9 0.9 0.00 0.00 0.00 93 1009.0
20260506171946 80 191 0.9 0.9 0.00 0.00 0.00 94 1008.9
20260506171444 81 71 0.9 0.9 0.00 0.00 0.00 93 1009.1
20260506170941 82 167 0.9 0.9 0.00 0.00 0.00 92 1009.0
20260506170437 82 203 4.3 6.1 0.00 0.00 0.00 91 1009.0
20260506165931 82 178 3.5 5.2 0.00 0.00 0.00 91 1009.1
20260506165429 81 160 2.6 2.6 0.00 0.00 0.00 92 1009.2
20260506164924 81 202 3.5 4.3 0.00 0.00 0.00 92 1009.0
20260506164421 80 150 0.9 0.9 0.00 0.00 0.00 93 1009.0
20260506163919 80 159 1.7 1.7 0.00 0.00 0.00 93 1009.1
20260506163413 80 162 5.2 7.0 0.00 0.00 0.00 93 1009.0
20260506162908 80 164 1.7 1.7 0.00 0.00 0.00 94 1008.9
20260506162406 80 182 5.2 6.1 0.00 0.00 0.00 93 1009.1
20260506161858 80 169 1.7 2.6 0.00 0.00 0.00 94 1008.9
20260506161355 80 197 1.7 2.6 0.00 0.00 0.00 95 1009.1
20260506160853 79 205 0.9 0.9 0.00 0.00 0.00 96 1008.8
20260506160350 79 196 1.7 1.7 0.00 0.00 0.00 97 1009.0
20260506155848 79 136 0.9 1.7 0.00 0.00 0.00 97 1008.6
20260506155345 79 171 1.7 1.7 0.00 0.00 0.00 97 1008.7
20260506153502 78 143 2.6 2.6 0.00 0.00 0.00 99 1008.7
20260506153000 78 191 1.7 2.6 0.00 0.00 0.00 99 1008.7
20260506152456 78 195 0.9 0.9 0.00 0.00 0.00 99 1008.3
20260506151954 78 153 0.9 1.7 0.00 0.00 0.00 99 1008.2
20260506151452 78 171 1.7 1.7 0.00 0.00 0.00 99 1008.2
20260506150949 77 187 1.7 2.6 0.00 0.00 0.00 99 1008.1
20260506150445 77 168 0.9 0.9 0.00 0.00 0.00 99 1008.2
20260506145942 77 120 0.9 0.9 0.00 0.00 0.00 99 1008.1
20260506145438 77 202 2.6 5.2 0.00 0.00 0.00 99 1007.9
20260506144936 77 138 0.9 0.9 0.00 0.00 0.00 99 1007.8
20260506144432 77 178 0.9 1.7 0.00 0.00 0.00 99 1007.8
20260506143931 77 166 0.9 1.7 0.00 0.00 0.00 99 1008.0
20260506143428 77 150 1.7 1.7 0.00 0.00 0.00 99 1007.9
20260506142926 77 158 0.9 0.9 0.00 0.00 0.00 99 1007.7
20260506142424 77 164 0.0 0.0 0.00 0.00 0.00 99 1008.0
20260506141921 77 174 0.9 0.9 0.00 0.00 0.00 99 1008.0
20260506141419 77 167 0.9 1.7 0.00 0.00 0.00 99 1008.0
20260506140918 77 173 1.7 1.7 0.00 0.00 0.00 99 1008.1
20260506140414 77 97 0.9 1.7 0.00 0.00 0.00 99 1008.1
20260506135911 77 165 0.9 0.9 0.00 0.00 0.00 99 1008.3
20260506135408 77 149 1.7 1.7 0.00 0.00 0.00 99 1008.1
20260506134904 77 181 0.9 0.9 0.00 0.00 0.00 99 1008.1
20260506134400 77 169 0.9 1.7 0.00 0.00 0.00 99 1008.0
20260506133857 77 183 0.0 0.0 0.00 0.00 0.00 99 1008.1
20260506133354 77 177 0.9 0.9 0.00 0.00 0.00 99 1008.0
20260506132850 77 170 0.9 0.9 0.00 0.00 0.00 99 1008.2
20260506132348 77 191 1.7 1.7 0.00 0.00 0.00 99 1008.1
20260506131846 77 173 0.9 0.9 0.00 0.00 0.00 99 1008.0
20260506131342 77 179 0.0 0.0 0.00 0.00 0.00 99 1008.0
20260506130839 77 194 0.0 0.0 0.00 0.00 0.00 99 1008.2
20260506130335 77 205 0.9 0.9 0.00 0.00 0.00 99 1008.3
20260506125833 77 177 0.0 0.9 0.00 0.00 0.00 99 1008.0
20260506125332 77 177 0.9 1.7 0.00 0.00 0.00 99 1007.9
20260506124830 76 142 1.7 1.7 0.00 0.00 0.00 99 1008.2
20260506124326 76 161 0.0 0.9 0.00 0.00 0.00 99 1008.1
20260506123824 76 140 0.9 1.7 0.00 0.00 0.00 99 1008.1
20260506123322 76 171 0.0 0.0 0.00 0.00 0.00 99 1007.9
20260506122819 76 177 0.9 0.9 0.00 0.00 0.00 99 1007.9
20260506122316 76 180 0.9 1.7 0.00 0.00 0.00 99 1007.9
20260506121814 76 174 0.0 0.0 0.00 0.00 0.00 99 1008.0
20260506121311 76 175 0.0 0.9 0.00 0.00 0.00 99 1007.8
20260506120808 76 158 1.7 1.7 0.00 0.00 0.00 99 1007.8
20260506120306 76 145 0.9 0.9 0.00 0.00 0.00 99 1007.6
20260506115803 76 165 1.7 1.7 0.00 0.00 0.00 99 1007.4
20260506115306 76 169 0.0 0.0 0.00 0.00 0.00 99 1007.4
20260506114759 76 84 0.9 1.7 0.00 0.00 0.00 99 1007.4
20260506114256 76 126 0.9 0.9 0.00 0.00 0.00 99 1007.4
20260506113755 76 183 0.0 0.9 0.00 0.00 0.00 99 1007.2
20260506113252 76 158 0.9 0.9 0.00 0.00 0.00 99 1007.1
20260506112748 76 171 0.9 0.9 0.00 0.00 0.00 99 1007.2
20260506112246 76 157 0.9 1.7 0.00 0.00 0.00 99 1007.1
20260506111743 76 144 0.0 0.0 0.00 0.00 0.00 99 1007.1
20260506111241 76 114 1.7 1.7 0.00 0.00 0.00 99 1007.1
20260506110737 76 143 0.9 0.9 0.00 0.00 0.00 99 1007.1
20260506110235 76 156 0.0 0.0 0.00 0.00 0.00 99 1007.2
20260506105732 76 192 0.0 0.0 0.00 0.00 0.00 99 1007.2
20260506105229 76 171 0.0 0.0 0.00 0.00 0.00 99 1007.0
20260506104727 76 167 0.0 0.9 0.00 0.00 0.00 99 1007.1
20260506104224 76 149 0.9 1.7 0.00 0.00 0.00 99 1007.1
20260506103721 76 146 0.0 0.9 0.00 0.00 0.00 99 1007.1
20260506103218 76 149 0.0 0.0 0.00 0.00 0.00 99 1007.2
20260506102716 76 167 0.9 0.9 0.00 0.00 0.00 99 1007.0
20260506102214 76 173 0.0 0.0 0.00 0.00 0.00 99 1006.9
20260506101710 76 193 0.9 1.7 0.00 0.00 0.00 99 1007.0
20260506101207 75 154 0.0 0.0 0.00 0.00 0.00 99 1006.7
20260506100705 75 183 1.7 1.7 0.00 0.00 0.00 99 1006.8
20260506100203 75 143 0.0 0.0 0.00 0.00 0.00 99 1006.8
20260506095701 75 145 0.9 1.7 0.00 0.00 0.00 99 1006.4
20260506095158 75 154 0.0 0.9 0.00 0.00 0.00 99 1006.8
20260506094655 76 171 0.9 0.9 0.00 0.00 0.00 99 1006.8
20260506094153 76 164 0.0 0.0 0.00 0.00 0.00 99 1006.8
20260506093651 76 144 0.0 0.9 0.00 0.00 0.00 99 1006.6
20260506093148 76 166 0.9 0.9 0.00 0.00 0.00 99 1006.7
20260506092646 76 173 0.0 0.0 0.00 0.00 0.00 99 1006.7
20260506092143 76 157 0.0 0.0 0.00 0.00 0.00 99 1006.6
20260506091640 76 167 2.6 2.6 0.00 0.00 0.00 99 1006.7
20260506091137 76 182 0.9 0.9 0.00 0.00 0.00 99 1006.8
20260506090636 76 170 0.9 0.9 0.00 0.00 0.00 99 1006.7
20260506090132 76 137 0.9 0.9 0.00 0.00 0.00 99 1007.0
20260506085629 76 145 0.0 0.0 0.00 0.00 0.00 99 1006.9
20260506085125 76 175 0.0 0.0 0.00 0.00 0.00 99 1006.8
20260506084622 76 182 0.0 0.9 0.00 0.00 0.00 99 1006.9
20260506084118 76 174 0.9 0.9 0.00 0.00 0.00 99 1007.0
20260506083616 76 172 0.9 1.7 0.00 0.00 0.00 99 1007.1
20260506083113 76 141 1.7 1.7 0.00 0.00 0.00 99 1007.2
20260506082610 76 160 0.9 0.9 0.00 0.00 0.00 99 1007.1
20260506082105 76 200 0.0 0.0 0.00 0.00 0.00 99 1007.3
20260506081603 76 182 0.9 0.9 0.00 0.00 0.00 99 1007.3
20260506081101 76 182 0.0 0.9 0.00 0.00 0.00 99 1007.3
20260506080559 76 174 0.0 0.9 0.00 0.00 0.00 99 1007.4
20260506073038 76 189 0.0 0.9 0.00 0.00 0.00 99 1007.6
20260506072536 76 166 0.9 0.9 0.00 0.00 0.00 99 1007.9
20260506072034 76 187 0.9 0.9 0.00 0.00 0.00 99 1007.8
20260506071531 76 196 0.9 0.9 0.00 0.00 0.00 99 1007.7
20260506071028 76 177 0.9 1.7 0.00 0.00 0.00 99 1007.8
20260506070525 76 148 0.9 1.7 0.00 0.00 0.00 99 1008.0
20260506062503 76 159 1.7 1.7 0.00 0.00 0.00 99 1007.8
20260506061959 76 181 1.7 1.7 0.00 0.00 0.00 99 1007.8
20260506061455 76 187 0.9 1.7 0.00 0.00 0.00 99 1007.8
20260506060953 76 186 0.9 0.9 0.00 0.00 0.00 99 1007.9
20260506060451 76 177 1.7 2.6 0.00 0.00 0.00 99 1007.9
20260506050920 76 182 0.9 1.7 0.00 0.00 0.00 98 1007.7
20260506050418 76 193 1.7 2.6 0.00 0.00 0.00 98 1007.6
20260506044908 76 174 2.6 2.6 0.00 0.00 0.00 98 1007.8
20260506044406 76 172 1.7 1.7 0.00 0.00 0.00 98 1007.9
20260506043903 76 185 2.6 2.6 0.00 0.00 0.00 98 1007.7
20260506043400 76 163 2.6 4.3 0.00 0.00 0.00 98 1007.8
20260506042858 76 177 2.6 5.2 0.00 0.00 0.00 98 1007.8
20260506042357 76 182 1.7 2.6 0.00 0.00 0.00 98 1007.7
20260506041855 76 164 1.7 1.7 0.00 0.00 0.00 98 1007.7
20260506041354 76 171 1.7 2.6 0.00 0.00 0.00 98 1007.6
20260506040849 76 175 0.9 0.9 0.00 0.00 0.00 98 1007.7
20260506040347 76 174 0.9 0.9 0.00 0.00 0.00 98 1007.8
20260506035843 76 160 2.6 4.3 0.00 0.00 0.00 98 1007.7
20260506035340 76 183 1.7 1.7 0.00 0.00 0.00 98 1007.9
20260506034837 76 186 0.9 1.7 0.00 0.00 0.00 98 1007.9
20260506034334 76 178 0.9 0.9 0.00 0.00 0.00 98 1007.7
20260506033831 76 185 1.7 2.6 0.00 0.00 0.00 98 1007.7
20260506033328 76 157 2.6 2.6 0.00 0.00 0.00 98 1007.8
20260506032825 76 139 2.6 4.3 0.00 0.00 0.00 98 1007.6
20260506032322 76 192 0.9 1.7 0.00 0.00 0.00 98 1007.7
20260506031819 76 171 2.6 2.6 0.00 0.00 0.00 98 1007.6
20260506031316 77 162 2.6 2.6 0.00 0.00 0.00 97 1007.6
20260506030814 77 162 4.3 5.2 0.00 0.00 0.00 98 1007.5
20260506030312 77 191 0.9 0.9 0.00 0.00 0.00 97 1007.5
20260506025808 77 185 1.7 1.7 0.00 0.00 0.00 97 1007.4
20260506025306 77 195 3.5 5.2 0.00 0.00 0.00 98 1007.5
20260506024802 76 179 2.6 4.3 0.00 0.00 0.00 97 1007.3
20260506024258 76 103 2.6 2.6 0.00 0.00 0.00 98 1007.4
20260506023754 76 189 1.7 1.7 0.00 0.00 0.00 97 1007.1
20260506023252 76 109 4.3 6.1 0.00 0.00 0.00 97 1007.0
20260506022748 77 157 1.7 2.6 0.00 0.00 0.00 97 1006.9
20260506022246 77 180 1.7 1.7 0.00 0.00 0.00 97 1006.9
20260506021744 77 170 2.6 2.6 0.00 0.00 0.00 97 1006.8
20260506021241 76 158 1.7 2.6 0.00 0.00 0.00 97 1006.7
20260506020737 76 180 5.2 6.1 0.00 0.00 0.00 98 1006.8
20260506020235 76 120 0.9 1.7 0.00 0.00 0.00 98 1006.7
20260506015733 76 184 2.6 2.6 0.00 0.00 0.00 98 1006.6
20260506015230 76 168 0.9 1.7 0.00 0.00 0.00 98 1006.6
20260506014727 76 166 0.0 0.9 0.00 0.00 0.00 98 1006.5
20260506014223 76 107 2.6 2.6 0.00 0.00 0.00 98 1006.4
20260506013721 76 163 2.6 2.6 0.00 0.00 0.00 97 1006.3
20260506013218 76 177 1.7 1.7 0.00 0.00 0.00 97 1006.5
20260506012714 76 188 3.5 6.1 0.00 0.00 0.00 97 1006.4
20260506012211 76 178 0.9 0.9 0.00 0.00 0.00 97 1006.0
20260506011708 76 185 1.7 1.7 0.00 0.00 0.00 97 1006.0
20260506011204 76 172 0.9 0.9 0.00 0.00 0.00 97 1005.9
20260506010703 77 148 1.7 2.6 0.00 0.00 0.00 97 1005.8
20260506010200 77 175 0.9 1.7 0.00 0.00 0.00 96 1006.0
20260506005657 77 160 3.5 6.1 0.00 0.00 0.00 96 1005.9
20260506005153 77 145 2.6 2.6 0.00 0.00 0.00 96 1005.9
20260506004649 77 172 5.2 7.0 0.00 0.00 0.00 96 1005.7
20260506004147 77 185 2.6 2.6 0.00 0.00 0.00 95 1005.8
20260506003643 77 225 1.7 1.7 0.00 0.00 0.00 95 1005.7
20260506003139 77 146 1.7 1.7 0.00 0.00 0.00 95 1005.8
20260506002635 78 164 2.6 2.6 0.00 0.00 0.00 94 1005.9
20260506002132 78 173 1.7 2.6 0.00 0.00 0.00 94 1005.8
20260506001627 78 168 2.6 4.3 0.00 0.00 0.00 94 1005.7
20260506001125 78 155 4.3 6.1 0.00 0.00 0.00 94 1005.9
20260506000622 78 192 2.6 4.3 0.00 0.00 0.00 94 1005.8
20260506000119 78 167 2.6 2.6 0.00 0.00 0.00 94 1005.6
20260505235618 78 199 2.6 2.6 0.00 0.00 0.00 94 1005.8
20260505235114 78 160 4.3 5.2 0.00 0.00 0.00 94 1005.8
20260505234611 78 183 2.6 2.6 0.00 0.00 0.00 94 1005.8
20260505234108 78 124 5.2 6.1 0.00 0.00 0.00 94 1005.8
20260505233606 78 176 1.7 1.7 0.00 0.00 0.00 93 1005.9
20260505233103 78 154 4.3 7.0 0.00 0.00 0.00 93 1005.9
20260505232601 78 190 1.7 2.6 0.00 0.00 0.00 93 1006.0
20260505232058 78 179 1.7 1.7 0.00 0.00 0.00 93 1005.8
20260505231554 78 180 2.6 4.3 0.00 0.00 0.00 93 1005.9
20260505231053 79 192 0.9 1.7 0.00 0.00 0.00 93 1005.9
20260505230550 79 200 2.6 2.6 0.00 0.00 0.00 92 1006.0
20260505230046 79 210 0.0 0.0 0.00 0.00 0.00 92 1005.8
20260505225544 79 114 6.1 7.0 0.00 0.00 0.00 91 1006.1
20260505225039 80 166 3.5 4.3 0.00 0.00 0.00 91 1006.0
20260505224537 80 191 2.6 2.6 0.00 0.00 0.00 90 1006.0
20260505224034 81 135 2.6 2.6 0.00 0.00 0.00 88 1006.0
20260505223531 81 224 2.6 2.6 0.00 0.00 0.00 87 1005.9
20260505223027 81 191 4.3 6.1 0.00 0.00 0.00 89 1006.0
20260505222523 81 193 4.3 5.2 0.00 0.00 0.00 88 1006.1
20260505222019 80 222 2.6 2.6 0.00 0.00 0.00 89 1006.1
20260505221517 80 195 5.2 7.0 0.00 0.00 0.00 89 1006.1
20260505221014 80 183 2.6 2.6 0.00 0.00 0.00 90 1005.9
20260505220511 80 211 2.6 2.6 0.00 0.00 0.00 90 1006.3
20260505220009 80 186 2.6 4.3 0.00 0.00 0.00 89 1006.3
20260505215506 80 217 2.6 4.3 0.00 0.00 0.00 89 1006.3
20260505215004 80 178 2.6 4.3 0.00 0.00 0.00 90 1006.3
20260505214502 80 162 2.6 4.3 0.00 0.00 0.00 89 1006.4
20260505213958 79 130 1.7 2.6 0.00 0.00 0.00 90 1006.3
20260505213456 79 177 1.7 1.7 0.00 0.00 0.00 91 1006.4
20260505212952 79 134 3.5 5.2 0.00 0.00 0.00 91 1006.4
20260505212449 80 184 0.9 1.7 0.00 0.00 0.00 91 1006.6
20260505211945 80 195 1.7 1.7 0.00 0.00 0.00 90 1006.6
20260505211443 80 230 1.7 1.7 0.00 0.00 0.00 90 1006.4
20260505210939 80 210 2.6 4.3 0.00 0.00 0.00 90 1006.3
20260505210436 80 263 1.7 1.7 0.00 0.00 0.00 90 1006.8
20260505205933 79 168 3.5 6.1 0.00 0.00 0.00 91 1006.8
20260505205432 79 209 2.6 2.6 0.00 0.00 0.00 91 1007.1
20260505204928 79 204 5.2 6.1 0.00 0.00 0.00 90 1007.0
20260505204426 79 187 2.6 2.6 0.00 0.00 0.00 91 1007.2
20260505203923 80 170 2.6 2.6 0.00 0.00 0.00 91 1007.3
20260505203419 79 227 0.9 0.9 0.00 0.00 0.00 91 1007.2
20260505202916 80 175 6.1 8.7 0.00 0.00 0.00 90 1007.4
20260505202412 80 226 4.3 6.1 0.00 0.00 0.00 90 1007.4
20260505201909 80 197 3.5 6.1 0.00 0.00 0.00 90 1007.4
20260505201406 80 181 4.3 6.1 0.00 0.00 0.00 89 1007.5
20260505200904 80 197 3.5 6.1 0.00 0.00 0.00 89 1007.5
20260505200401 80 205 3.5 6.1 0.00 0.00 0.00 90 1007.5
20260505195856 80 179 2.6 4.3 0.00 0.00 0.00 90 1007.5
20260505195354 80 204 1.7 2.6 0.00 0.00 0.00 90 1007.6
20260505194851 80 225 4.3 6.1 0.00 0.00 0.00 89 1007.7
20260505194348 80 214 2.6 4.3 0.00 0.00 0.00 90 1007.6
20260505193843 80 188 4.3 6.1 0.00 0.00 0.00 90 1007.6
20260505193341 80 172 2.6 2.6 0.00 0.00 0.00 90 1007.5
20260505192838 80 192 1.7 1.7 0.00 0.00 0.00 90 1007.7
20260505192337 80 185 2.6 4.3 0.00 0.00 0.00 90 1007.6
20260505191834 80 220 1.7 1.7 0.00 0.00 0.00 90 1007.6
20260505191332 80 176 1.7 1.7 0.00 0.00 0.00 90 1007.7
20260505190829 80 181 1.7 2.6 0.00 0.00 0.00 90 1007.8
20260505190324 80 169 2.6 4.3 0.00 0.00 0.00 90 1007.6
20260505185820 80 205 1.7 2.6 0.00 0.00 0.00 89 1007.7